{"data":{"norad_id":60928,"epoch":"2026-09-21T22:16:46.414272Z","epoch_age_seconds":65021,"freshness":"FRESH","line1":"1 60928U 24155E   26264.92831498  .00000588  00000+0  97117-5 0  9996","line2":"2 60928  53.1593  93.8850 0001131  87.2608 272.8539 15.69705546119277","mean_motion":15.69705546,"eccentricity":0.0001131,"inclination_deg":53.1593,"raan_deg":93.885,"arg_perigee_deg":87.2608,"mean_anomaly_deg":272.8539,"bstar":9.7117e-6,"rev_number":11927,"period_min":91.736950517215,"perigee_km":358.97744226131,"apogee_km":360.50154992473,"semimajor_km":6737.876496093,"source":"CELESTRAK","updated_at":"2026-09-22T09:00:49.289219Z"}}